{"data":{"norad_id":68747,"epoch":"2026-09-19T20:59:23.705088Z","epoch_age_seconds":95353,"freshness":"FRESH","line1":"1 68747U 26082V   26262.87457992  .00015284  00000+0  47481-3 0  9995","line2":"2 68747  97.2855 125.0946 0002021  92.6661 267.4813 15.33442934 24210","mean_motion":15.33442934,"eccentricity":0.0002021,"inclination_deg":97.2855,"raan_deg":125.0946,"arg_perigee_deg":92.6661,"mean_anomaly_deg":267.4813,"bstar":0.00047481,"rev_number":2421,"period_min":93.906331176195,"perigee_km":464.16621244191,"apogee_km":466.93243045304,"semimajor_km":6843.6863214475,"source":"CELESTRAK","updated_at":"2026-09-20T09:00:43.995088Z"}}